OPS 7218 (TRANSIT 16) 1 02807U 67048A 25310.15433756 .00000166 00000+0 24288-3 0 9996 2 02807 89.6772 355.2240 0019115 217.0836 196.6504 13.50711068877828 OPS 4947 (TRANSIT 17) 1 02965U 67092A 25310.29131582 .00000180 00000+0 24923-3 0 9999 2 02965 89.2533 27.2071 0046740 344.0232 82.0590 13.53440122866045 OPS 7034 (TRANSIT 18) 1 03133U 68012A 25309.90520171 .00000147 00000+0 20934-3 0 9993 2 03133 90.0227 273.5439 0071894 277.7501 107.3260 13.51554069564219 NNSS 19 (TRANSIT 19) 1 04507U 70067A 25310.26953246 .00000256 00000+0 34457-3 0 9992 2 04507 90.0041 234.5097 0173516 39.1129 322.2417 13.51297820717295 NNSS 20 (TRANSIT 20) 1 06909U 73081A 25310.27830418 .00000211 00000+0 20491-3 0 9999 2 06909 89.8523 255.6066 0154106 186.8550 173.0507 13.71413317798616 TRANSAT 1 10457U 77106A 25310.29068905 .00000101 00000+0 14601-3 0 9994 2 10457 89.6455 79.8892 0023848 300.6828 118.7099 13.48935193362520 NOVA 1 1 12458U 81044A 25310.15843237 .00000085 00000+0 18064-3 0 9995 2 12458 89.8493 91.9059 0013651 198.6586 335.5100 13.23272426147028 NOVA 3 1 15362U 84110A 25310.30571062 .00000058 00000+0 11619-3 0 9999 2 15362 90.1198 80.1074 0033183 71.1463 347.5539 13.23038744982175 OSCAR 30 1 15935U 85066A 25309.98296054 .00000102 00000+0 16888-3 0 9996 2 15935 90.1619 99.2511 0167613 186.8799 294.2085 13.36068074959629 OSCAR 24 1 15936U 85066B 25310.32545311 .00000106 00000+0 17654-3 0 9996 2 15936 90.1760 91.6654 0168557 192.3936 228.9839 13.35926833961577 POLAR BEAR 1 17070U 86088A 25310.24646497 .00000138 00000+0 13252-3 0 9995 2 17070 89.6212 185.2285 0037675 229.1017 250.8829 13.75240263954775 OSCAR 27 1 18361U 87080A 25310.31283359 .00000115 00000+0 17709-3 0 9990 2 18361 90.3719 77.9113 0102750 329.7763 29.7482 13.44895692870671 OSCAR 29 1 18362U 87080B 25310.30953653 .00000092 00000+0 14062-3 0 9994 2 18362 90.3730 78.3670 0105011 352.9489 62.7363 13.44439160870202 OSCAR 23 1 19070U 88033A 25310.20054002 .00000138 00000+0 26596-3 0 9995 2 19070 90.3259 15.2514 0187556 282.1393 130.3145 13.27777999817683 OSCAR 32 1 19071U 88033B 25310.18199459 .00000140 00000+0 27010-3 0 9994 2 19071 90.3263 15.3807 0185977 268.9384 143.2335 13.27945881817807 NOVA 2 1 19223U 88052A 25310.30561468 .00000077 00000+0 16107-3 0 9995 2 19223 89.9848 78.3190 0032102 113.0179 304.1659 13.22929519804668 OSCAR 25 1 19419U 88074A 25310.22762766 .00000143 00000+0 23117-3 0 9994 2 19419 90.0389 20.1160 0095503 351.6948 66.5194 13.42613004821504 OSCAR 31 1 19420U 88074B 25310.25084712 .00000129 00000+0 20784-3 0 9998 2 19420 90.0406 20.4599 0093575 345.8085 73.3139 13.42575862821615